Flag for France Weather past 2 weeks in Périgueux, France

Now
52 °F

Fog.


Feels Like: 52 °F
Forecast: 50 / 77 °F
Wind: No wind

Location: Bergerac Airport

Current Time: Oct 2, 2014 at 4:20:47 AM

Latest Report: Oct 2, 2014 at 4:00 AM


Visibility: 3 mi

Pressure: 30.30 "Hg

Humidity: 100%

Dew point: 52 °F

Location of PérigueuxLocation

Historic Weather in Périgueux — Graph

°F

Périgueux temperature yesterday

Maximum temperature yesterday: 77 °F (at 4:00 PM)
Minimum temperature yesterday: 55 °F (at 11:00 PM)
Average temperature yesterday: 63 °F

Past Weeks' High & Low Weather Summary

 TemperatureHumidityPressure
High88 °F (Sep 17, 3:30 PM)100% (Sep 18, 7:30 AM)30.36 "Hg (Sep 18, 7:30 AM)
Low39 °F (Sep 26, 7:30 AM)30% (Sep 27, 6:00 PM)29.65 "Hg (Sep 17, 5:00 PM)
Average64 °F80%30.07 "Hg
* Reported Sep 17 3:00 AM — Oct 2 3:00 AM, Périgueux, Weather by CustomWeather, © 2014

Note: Actual official high and low records may vary slightly from our data, if they occured in-between our weather recording intervals... More about our weather records

Advertising

Périgueux weather history for previous 24 hours

 ConditionsComfort  
Time TempWeatherWind HumidityBarometerVisibility
3:00 AM
Oct 2
52 °FClear.No wind100%30.30 "Hg4 mi
2:30 AM52 °FFog.No wind94%30.33 "Hg0 mi
2:00 AM52 °FClear.2 mph100%30.33 "Hg5 mi
1:30 AM54 °FClear.No wind94%30.33 "HgN/A
1:00 AM54 °FClear.2 mph100%30.33 "HgN/A
12:30 AM55 °FClear.1 mph94%30.33 "HgN/A
12:00 AM55 °FClear.2 mph94%30.33 "HgN/A
11:30 PM
Oct 1
55 °FClear.1 mph94%30.33 "Hg5 mi
11:00 PM55 °FClear.No wind100%30.33 "HgN/A
10:30 PM57 °FClear.No wind94%30.33 "HgN/A
10:00 PM57 °FClear.3 mph94%30.33 "HgN/A
9:30 PM59 °FClear.2 mph88%30.30 "HgN/A
9:00 PM61 °FClear.3 mph83%30.30 "HgN/A
8:30 PM63 °FClear.3 mph88%30.30 "HgN/A
8:00 PM66 °FClear.3 mph73%30.30 "HgN/A
7:30 PM70 °FClear.6 mph64%30.30 "HgN/A
7:00 PM73 °FClear.7 mph57%30.30 "HgN/A
6:30 PM75 °FClear.7 mph54%30.27 "HgN/A
6:00 PM75 °FPassing clouds.6 mph57%30.27 "HgN/A
5:30 PM75 °FClear.5 mph57%30.27 "HgN/A
5:00 PM77 °FPassing clouds.5 mph57%30.27 "HgN/A
4:30 PM75 °FPassing clouds.6 mph57%30.27 "HgN/A
4:00 PM77 °FClear.5 mph54%30.30 "HgN/A
3:30 PM75 °FClear.3 mph61%30.30 "HgN/A
3:00 PM73 °FClear.5 mph69%30.30 "HgN/A
2:30 PM70 °FClear.3 mph78%30.30 "HgN/A
2:00 PM68 °FScattered clouds.2 mph83%30.33 "Hg6 mi
1:30 PM64 °FLow clouds.2 mph94%30.33 "Hg5 mi
1:00 PM63 °FLow clouds.2 mph100%30.36 "Hg4 mi
12:30 PM63 °FFog.2 mph100%30.36 "Hg2 mi
12:00 PM61 °FFog.2 mph100%30.36 "Hg1 mi
11:30 AM61 °FFog.2 mph100%30.36 "Hg0 mi
11:00 AM59 °FFog.1 mph100%30.36 "Hg0 mi
10:30 AM59 °FFog.1 mph100%30.36 "Hg0 mi
10:00 AM57 °FFog.2 mph100%30.33 "Hg0 mi
9:30 AM57 °FFog.2 mph100%30.33 "Hg0 mi
9:00 AM59 °FFog.3 mph100%30.33 "Hg0 mi
8:30 AM59 °FFog.3 mph100%30.33 "Hg0 mi
8:00 AM59 °FFog.2 mph100%30.30 "Hg0 mi
7:30 AM59 °FFog.No wind100%30.30 "Hg0 mi
7:00 AM59 °FFog.2 mph100%30.30 "Hg0 mi
6:30 AM59 °FFog.2 mph100%30.30 "Hg0 mi
6:00 AM59 °FFog.No wind100%30.30 "Hg0 mi
5:30 AM59 °FFog.2 mph100%30.30 "Hg0 mi
4:30 AM59 °FFog.No wind100%30.30 "Hg1 mi
4:00 AM59 °FFog.No wind100%30.30 "Hg0 mi
Weather by CustomWeather, © 2014

See weather overviewHow to use our weather pages